User: anonymous   Login
Location: �quirre
(50.4736°N, 2.2351°E)
Time: 13:14:56
(UTC+00:00)
Language:

Okean 2 Rocket - Orbit

View from above orbital plane
View from above orbital plane
View from above satellite
View from above satellite

Ground track
Ground track

The orbit data is extracted from the following two-line orbital elements,

1 20511U 90018B   20294.40912115 +.00000081 +00000-0 +75955-5 0  9992
2 20511 082.5218 256.7587 0018959 069.9359 044.0683 14.80051013652696
Epoch (UTC): 20 October 2020 09:49:08
Eccentricity: 0.0018959
inclination: 82.5218°
perigee height: 616 km
apogee height: 642 km
right ascension of ascending node: 256.7587°
argument of perigee: 69.9359°
revolutions per day: 14.80051013
mean anomaly at epoch: 44.0683°
orbit number at epoch: 65269

The dashed part of the orbit path shows where the satellite is in the earth's shadow,  

DLR